星链-4770 (STARLINK-4770 )

导读

STARLINK-4770是美国SpaceX星链计划中的卫星,于2022年9月19日发射升空,属于星链卫星互联网星座组网卫星。它依托猎鹰九号火箭部署至近地轨道,主要为全球提供高速低延迟卫星互联网服务,尤其覆盖偏远地区等地面网络未通达区域,支撑星链全球组网覆盖与服务能力拓展。

基本信息
目录编号:
53849
目录名称:
STARLINK-4770
国际标识:
2022-114AH
轨道中心:
EARTH
卫星名称:
星链-4770
卫星全名:
星链-4770 (STARLINK-4770 )
卫星状态:
在轨 (已飞行1365 天)
发射日期:
2022-09-19 UTC
国别 :
美国 (US)
星等 :
--
轨道信息
数据来源 国际轨道数据
星历时间: 2026-06-15T04:00:05+0800
4小时前
查看轨道信息
半长轴: 6903.004km
偏心率: 0.0002144
轨道倾角: 53.159°
近地点辐角 96.001°
升交点赤经 217.749°
平近点角 122.408°
近地点: 523.386km
远地点: 526.348km
周期: 95.130分钟
每日圈数: 15.137201
详细信息
固有亮度:
5
最大亮度:
2.5
卫星平台:
Starlink v1.5
覆盖范围:
全球
运营商:
太空探索技术公司
运营商所在国:
美国
制造商(研发单位):
太空探索技术公司
制造商所在国:
美国
使用方式:
暂无
卫星简介
星链(Starlink)计划是由太空探索技术公司(SpaceX)提出的一个巨型低轨卫星互联网星座项目,计划在2019年至2024年间在太空搭建由约1.2万颗卫星组成的“星链”网络,其中1584颗将部署在地球上空550千米处的近地轨道,并从2020年开始工作。该卫星仍在工作。
2D轨道图
3D轨道图
轨道高度分析图
轨道倾角分析图
轨道综合分析图
查看轨道综合分析图